FW3266 Weather Reports


Display with metric or nautical units.
time (UTC)temp
F
wind
direction
speed
MPH
gust
MPH
rain 1hr
in
rain 24hr
in
rain mn
in
humidity
%
barometer
mb
20260831075850 67 29 2.0 4.0 0.00 0.04 0.01 90 1019.2
20260831075352 67 41 1.0 4.0 0.00 0.04 0.01 90 1019.2
20260831074851 67 31 0.0 4.0 0.00 0.04 0.01 90 1019.2
20260831074351 67 20 1.0 5.0 0.00 0.04 0.01 90 1019.1
20260831073842 67 205 2.0 5.0 0.00 0.04 0.01 90 1019.0
20260831073344 67 19 1.0 6.0 0.00 0.04 0.01 90 1019.0
20260831072842 67 352 3.0 6.0 0.00 0.04 0.01 90 1018.8
20260831072333 67 42 2.0 6.0 0.00 0.04 0.01 90 1018.7
20260831071833 67 44 2.0 6.0 0.00 0.04 0.01 91 1018.8
20260831071553 67 63 2.0 6.0 0.00 0.04 0.01 91 1018.8
20260831070831 67 51 2.0 4.0 0.00 0.04 0.01 91 1018.8
20260831070316 67 47 1.0 4.0 0.00 0.04 0.01 91 1018.8
20260831065816 67 37 1.0 4.0 0.00 0.04 0.01 91 1018.8
20260831065807 66 37 2.0 4.0 0.00 0.04 0.01 92 1018.8
20260831064813 67 36 2.0 4.0 0.00 0.04 0.01 92 1018.7
20260831064313 67 37 2.0 5.0 0.00 0.04 0.01 92 1018.7
20260831063811 67 49 2.0 5.0 0.00 0.04 0.01 92 1018.7
20260831063310 67 34 1.0 5.0 0.00 0.04 0.01 92 1018.7
20260831063031 67 359 2.0 5.0 0.00 0.04 0.01 92 1018.7
20260831062529 67 56 2.0 7.0 0.00 0.04 0.01 92 1018.7
20260831061801 67 39 2.0 7.0 0.00 0.04 0.01 92 1018.7
20260831061258 67 0 1.0 4.0 0.00 0.04 0.01 92 1018.7
20260831060757 68 359 1.0 4.0 0.00 0.04 0.01 92 1018.6
20260831060524 68 7 1.0 4.0 0.00 0.04 0.01 92 1018.6
20260831055757 68 8 0.0 4.0 0.00 0.04 0.01 92 1018.6
20260831055256 68 317 1.0 3.0 0.01 0.04 0.01 92 1018.6
20260831054757 68 314 1.0 3.0 0.01 0.04 0.01 92 1018.4
20260831054516 68 304 0.0 2.0 0.01 0.04 0.01 92 1018.3
20260831053747 68 303 1.0 2.0 0.01 0.04 0.01 91 1018.3
20260831053506 68 303 1.0 2.0 0.01 0.04 0.01 91 1018.2
20260831053230 68 303 0.0 3.0 0.01 0.04 0.01 91 1018.2
20260831052233 69 303 1.0 3.0 0.01 0.04 0.01 91 1018.0
20260831051731 69 275 0.0 2.0 0.01 0.04 0.01 91 1018.1
20260831051230 69 275 0.0 2.0 0.01 0.04 0.01 91 1017.9
20260831050710 69 275 1.0 2.0 0.01 0.04 0.01 91 1017.8
20260831050208 69 274 0.0 2.0 0.01 0.04 0.01 91 1017.9
20260831045708 69 314 0.0 2.0 0.01 0.03 0.01 91 1017.9
20260831045159 69 314 1.0 2.0 0.01 0.03 0.00 91 1017.8
20260831045147 69 314 0.0 2.0 0.01 0.03 0.00 91 1017.8
20260831044154 69 314 0.0 2.0 0.02 0.03 0.00 91 1017.9
20260831043651 69 314 0.0 3.0 0.03 0.03 0.00 91 1017.9
20260831043152 69 314 1.0 3.0 0.03 0.03 0.00 90 1018.0
20260831042649 69 313 1.0 4.0 0.03 0.03 0.00 90 1017.9
20260831042150 69 313 1.0 4.0 0.03 0.03 0.00 90 1017.9
20260831041648 70 243 1.0 4.0 0.03 0.03 0.00 90 1017.9
20260831040646 70 332 1.0 4.0 0.03 0.03 0.00 89 1017.9
20260831040148 70 332 1.0 4.0 0.03 0.03 0.00 89 1017.8
20260831035639 70 334 1.0 3.0 0.02 0.02 0.02 89 1017.9
20260831035137 70 335 1.0 5.0 0.02 0.02 0.02 88 1017.9
20260831034636 70 312 2.0 5.0 0.02 0.02 0.02 88 1017.9
20260831034137 71 321 2.0 7.0 0.01 0.01 0.02 88 1018.0
20260831033903 71 336 2.0 7.0 0.00 0.00 0.00 87 1018.0
20260831033136 71 255 2.0 4.0 0.00 0.00 0.00 87 1018.1
20260831032636 72 311 2.0 4.0 0.00 0.00 0.00 87 1018.0
20260831032133 72 41 1.0 4.0 0.00 0.00 0.00 86 1017.9
20260831031632 72 329 1.0 4.0 0.00 0.00 0.00 85 1017.9
20260831031130 72 262 0.0 3.0 0.00 0.00 0.00 85 1017.9
20260831030631 72 255 1.0 4.0 0.00 0.00 0.00 85 1018.0
20260831030129 72 304 1.0 6.0 0.00 0.00 0.00 85 1018.0
20260831025835 72 313 2.0 5.0 0.00 0.00 0.00 84 1017.9
20260831025718 72 323 1.0 6.0 0.00 0.00 0.00 84 1018.0
20260831024626 72 320 0.0 2.0 0.00 0.00 0.00 84 1017.9
20260831024126 72 320 1.0 3.0 0.00 0.00 0.00 84 1018.0
20260831023623 72 320 0.0 2.0 0.00 0.00 0.00 84 1018.0
20260831023122 72 322 1.0 4.0 0.00 0.00 0.00 84 1018.0
20260831022622 72 322 1.0 4.0 0.00 0.00 0.00 83 1017.9
20260831022122 73 309 1.0 3.0 0.00 0.00 0.00 83 1017.9
20260831021622 73 309 0.0 2.0 0.00 0.00 0.00 83 1017.9
20260831021120 73 309 1.0 3.0 0.00 0.00 0.00 82 1017.9
20260831020832 73 309 0.0 6.0 0.00 0.00 0.00 82 1017.9
20260831020110 73 287 1.0 6.0 0.00 0.00 0.00 82 1017.9
20260831015610 73 255 1.0 4.0 0.00 0.00 0.00 81 1017.9
20260831015110 73 245 1.0 5.0 0.00 0.00 0.00 81 1017.8
20260831014607 73 1 1.0 5.0 0.00 0.00 0.00 80 1017.8
20260831014108 73 356 1.0 4.0 0.00 0.00 0.00 79 1017.8
20260831013606 73 350 1.0 4.0 0.00 0.00 0.00 78 1017.7
20260831013107 74 268 1.0 3.0 0.00 0.00 0.00 78 1017.7
20260831012606 74 330 1.0 3.0 0.00 0.00 0.00 77 1017.7
20260831012326 74 330 1.0 2.0 0.00 0.00 0.00 77 1017.7
20260831011603 74 330 1.0 4.0 0.00 0.00 0.00 76 1017.7
20260831011323 74 327 1.0 5.0 0.00 0.00 0.00 76 1017.7
20260831010603 74 295 1.0 5.0 0.00 0.00 0.00 75 1017.7
20260831010101 74 47 1.0 3.0 0.00 0.00 0.00 75 1017.6
20260831005553 74 47 1.0 4.0 0.00 0.00 0.00 75 1017.7
20260831005052 74 47 1.0 4.0 0.00 0.00 0.00 74 1017.6
20260831004551 74 285 1.0 4.0 0.00 0.00 0.00 74 1017.6
20260831004049 74 276 1.0 4.0 0.00 0.00 0.00 73 1017.5
20260831003547 74 355 0.0 3.0 0.00 0.00 0.00 73 1017.6
20260831003047 74 250 1.0 3.0 0.00 0.00 0.00 72 1017.5
20260831002545 74 244 1.0 2.0 0.00 0.00 0.00 71 1017.5
20260831002309 74 241 1.0 3.0 0.00 0.00 0.00 71 1017.4
20260831001539 74 281 1.0 5.0 0.00 0.00 0.00 70 1017.4
20260831001038 74 335 1.0 5.0 0.00 0.00 0.00 70 1017.3
20260831000537 74 342 1.0 2.0 0.00 0.00 0.00 69 1017.3
20260831000255 74 342 1.0 2.0 0.00 0.00 0.00 69 1017.2
20260830235537 74 343 1.0 2.0 0.00 0.00 0.00 70 1017.2
20260830235031 74 276 1.0 2.0 0.00 0.00 0.00 69 1017.3
20260830234521 74 274 0.0 2.0 0.00 0.00 0.00 69 1017.3
20260830234023 75 143 0.0 2.0 0.00 0.00 0.00 68 1017.3
20260830233513 75 143 1.0 4.0 0.00 0.00 0.00 67 1017.3
20260830233012 75 143 1.0 4.0 0.00 0.00 0.00 67 1017.2
20260830232737 75 233 1.0 3.0 0.00 0.00 0.00 66 1017.3
20260830232237 75 184 1.0 3.0 0.00 0.00 0.00 67 1017.3
20260830231510 75 213 1.0 3.0 0.00 0.00 0.00 67 1017.3
20260830231009 75 212 1.0 3.0 0.00 0.00 0.00 67 1017.3
20260830230507 76 245 0.0 3.0 0.00 0.00 0.00 67 1017.2
20260830230008 76 245 1.0 3.0 0.00 0.00 0.00 66 1017.3
20260830225504 76 181 1.0 3.0 0.00 0.00 0.00 66 1017.5
20260830225004 76 193 0.0 3.0 0.00 0.00 0.00 67 1017.5
20260830224729 76 213 1.0 3.0 0.00 0.00 0.00 66 1017.6
20260830223954 76 148 1.0 4.0 0.00 0.00 0.00 66 1017.5
20260830223452 76 278 1.0 5.0 0.00 0.00 0.00 66 1017.5
20260830222951 76 359 1.0 5.0 0.00 0.00 0.00 65 1017.5
20260830222450 77 59 2.0 5.0 0.00 0.00 0.00 65 1017.6
20260830221950 77 79 1.0 4.0 0.00 0.00 0.00 64 1017.7
20260830221450 77 135 1.0 5.0 0.00 0.00 0.00 64 1017.5
20260830220947 77 261 1.0 5.0 0.00 0.00 0.00 65 1017.5
20260830220445 77 176 1.0 5.0 0.00 0.00 0.00 64 1017.7
20260830215945 78 185 2.0 4.0 0.00 0.00 0.00 63 1017.8
20260830215717 78 167 1.0 4.0 0.00 0.00 0.00 63 1017.8
20260830214943 78 162 1.0 4.0 0.00 0.00 0.00 62 1017.9
20260830214441 78 148 1.0 3.0 0.00 0.00 0.00 61 1017.8
20260830213934 78 187 0.0 2.0 0.00 0.00 0.00 60 1017.8
20260830213653 78 122 0.0 2.0 0.00 0.00 0.00 61 1017.8
20260830212935 79 271 1.0 5.0 0.00 0.00 0.00 60 1017.7
20260830212431 79 205 1.0 5.0 0.00 0.00 0.00 60 1017.7
20260830212147 79 83 0.0 4.0 0.00 0.00 0.00 58 1017.7
20260830211416 80 83 1.0 4.0 0.00 0.00 0.00 57 1017.6
20260830210917 80 50 1.0 3.0 0.00 0.00 0.00 55 1017.7
20260830210414 80 342 1.0 4.0 0.00 0.00 0.00 54 1017.7
20260830210136 80 341 0.0 4.0 0.00 0.00 0.00 57 1017.8
20260830205413 80 70 0.0 2.0 0.00 0.00 0.00 56 1017.8
20260830204914 80 70 1.0 3.0 0.00 0.00 0.00 56 1017.8
20260830204410 80 8 1.0 3.0 0.00 0.00 0.00 55 1017.9
20260830203910 80 32 1.0 4.0 0.00 0.00 0.00 54 1017.9
20260830203629 80 245 0.0 6.0 0.00 0.00 0.00 55 1017.9
20260830202907 80 313 2.0 6.0 0.00 0.00 0.00 54 1017.9
20260830202407 81 276 0.0 8.0 0.00 0.00 0.00 54 1018.0
20260830201858 81 359 2.0 9.0 0.00 0.00 0.00 50 1018.0
20260830201357 81 290 4.0 9.0 0.00 0.00 0.00 48 1018.0
20260830200857 82 304 2.0 6.0 0.00 0.00 0.00 50 1018.0
20260830200356 82 308 1.0 5.0 0.00 0.00 0.00 50 1017.9
20260830195855 82 280 1.0 4.0 0.00 0.00 0.00 52 1018.0
20260830195355 82 319 0.0 7.0 0.00 0.00 0.00 52 1018.1
20260830195059 83 327 5.0 11.0 0.00 0.00 0.00 47 1018.1
20260830194944 82 319 3.0 11.0 0.00 0.00 0.00 48 1018.2
20260830193853 83 326 3.0 9.0 0.00 0.00 0.00 45 1018.2
20260830193352 83 262 2.0 9.0 0.00 0.00 0.00 48 1018.2
20260830192851 83 65 2.0 9.0 0.00 0.00 0.00 47 1018.4
20260830192353 84 255 3.0 9.0 0.00 0.00 0.00 46 1018.4
20260830191852 84 335 2.0 5.0 0.00 0.00 0.00 47 1018.3
20260830191349 84 322 1.0 4.0 0.00 0.00 0.00 48 1018.3
20260830190850 84 316 1.0 6.0 0.00 0.00 0.00 48 1018.4
20260830190350 84 312 4.0 8.0 0.00 0.00 0.00 47 1018.5
20260830185848 83 311 3.0 8.0 0.00 0.00 0.00 50 1018.5
20260830185349 83 339 2.0 8.0 0.00 0.00 0.00 49 1018.5
20260830184848 83 292 2.0 6.0 0.00 0.00 0.00 50 1018.4
20260830184348 83 323 1.0 7.0 0.00 0.00 0.00 48 1018.6
20260830183846 84 213 2.0 7.0 0.00 0.00 0.00 46 1018.7
20260830183347 84 307 2.0 8.0 0.00 0.00 0.00 48 1018.7
20260830183107 84 309 3.0 9.0 0.00 0.00 0.00 47 1018.7
20260830182345 84 338 4.0 9.0 0.00 0.00 0.00 48 1018.8
20260830181846 83 32 3.0 6.0 0.00 0.00 0.00 51 1018.8
20260830181602 83 188 1.0 4.0 0.00 0.00 0.00 52 1018.9
20260830180841 83 273 2.0 4.0 0.00 0.00 0.00 53 1019.0
20260830180342 83 0 1.0 4.0 0.00 0.00 0.00 54 1019.1
20260830175841 83 46 1.0 5.0 0.00 0.00 0.00 51 1019.0
20260830175333 83 177 2.0 5.0 0.00 0.00 0.00 53 1018.9
20260830175056 83 330 1.0 4.0 0.00 0.00 0.00 51 1019.0
20260830174331 83 319 0.0 7.0 0.00 0.00 0.00 51 1018.9
20260830173830 83 295 4.0 7.0 0.00 0.00 0.00 49 1019.1
20260830173552 84 341 2.0 7.0 0.00 0.00 0.00 49 1019.3
20260830172829 85 282 2.0 16.0 0.00 0.00 0.00 48 1019.4
20260830172329 85 350 2.0 16.0 0.00 0.00 0.00 48 1019.4
20260830171828 84 300 3.0 8.0 0.00 0.00 0.00 53 1019.4
20260830171327 84 352 2.0 4.0 0.00 0.00 0.00 51 1019.5
20260830170825 84 23 2.0 7.0 0.00 0.00 0.00 49 1019.6
20260830170324 84 11 3.0 7.0 0.00 0.00 0.00 50 1019.6
20260830165824 84 315 2.0 5.0 0.00 0.00 0.00 49 1019.7
20260830165325 84 0 2.0 6.0 0.00 0.00 0.00 50 1019.7
20260830164825 84 266 2.0 6.0 0.00 0.00 0.00 50 1019.7
20260830164323 83 38 2.0 8.0 0.00 0.00 0.00 51 1019.6
20260830163816 83 1 3.0 8.0 0.00 0.00 0.00 51 1019.7
20260830163315 84 280 2.0 5.0 0.00 0.00 0.00 50 1019.7
20260830162817 84 162 2.0 10.0 0.00 0.00 0.00 52 1019.8
20260830162314 84 297 2.0 10.0 0.00 0.00 0.00 52 1019.8
20260830161813 84 181 2.0 8.0 0.00 0.00 0.00 54 1019.9
20260830161312 83 350 3.0 9.0 0.00 0.00 0.00 53 1019.9
20260830160812 83 200 1.0 9.0 0.00 0.00 0.00 52 1019.9
20260830160310 83 156 1.0 7.0 0.00 0.00 0.00 52 1019.9
20260830155810 83 318 3.0 7.0 0.00 0.00 0.00 53 1019.9
20260830155307 83 274 2.0 5.0 0.00 0.00 0.00 53 1020.0
20260830154807 83 219 1.0 5.0 0.00 0.00 0.00 52 1019.9
20260830154307 83 215 2.0 6.0 0.00 0.00 0.00 57 1020.2
20260830153806 83 314 2.0 6.0 0.00 0.00 0.00 56 1020.2
20260830153307 83 344 2.0 5.0 0.00 0.00 0.00 55 1020.3
20260830152805 83 30 1.0 3.0 0.00 0.00 0.00 55 1020.3
20260830152306 82 213 1.0 6.0 0.00 0.00 0.00 55 1020.3
20260830151803 82 75 2.0 6.0 0.00 0.00 0.00 56 1020.3
20260830151302 81 241 2.0 6.0 0.00 0.00 0.00 55 1020.5
20260830150802 81 324 2.0 6.0 0.00 0.00 0.00 56 1020.5
20260830150302 81 277 2.0 4.0 0.00 0.00 0.00 58 1020.7
20260830150024 81 160 1.0 3.0 0.00 0.00 0.00 56 1020.7
20260830145259 81 171 1.0 4.0 0.00 0.00 0.00 57 1020.8
20260830145027 80 314 2.0 5.0 0.00 0.00 0.00 60 1020.9
20260830144523 80 218 1.0 6.0 0.00 0.00 0.00 58 1020.8
20260830144018 80 323 3.0 6.0 0.00 0.00 0.00 61 1020.9
20260830143250 79 43 2.0 6.0 0.00 0.00 0.00 60 1020.9
20260830143016 79 1 1.0 5.0 0.00 0.00 0.00 60 1020.9
20260830142249 78 355 2.0 7.0 0.00 0.00 0.00 61 1021.0
20260830141747 78 316 3.0 7.0 0.00 0.00 0.00 62 1021.0
20260830141247 78 323 1.0 8.0 0.00 0.00 0.00 61 1021.0
20260830141007 78 314 3.0 8.0 0.00 0.00 0.00 64 1021.1
20260830140247 77 275 1.0 6.0 0.00 0.00 0.00 65 1021.0
20260830135745 76 224 1.0 4.0 0.00 0.00 0.00 66 1021.1
20260830135735 76 5 2.0 7.0 0.00 0.00 0.00 68 1021.1
20260830134741 75 326 3.0 7.0 0.00 0.00 0.00 67 1021.2
20260830134509 74 300 2.0 6.0 0.00 0.00 0.00 70 1021.3
20260830133742 74 285 2.0 6.0 0.00 0.00 0.00 68 1021.4
20260830133240 73 301 2.0 6.0 0.00 0.00 0.00 70 1021.4
20260830133007 73 34 2.0 4.0 0.00 0.00 0.00 70 1021.4
20260830132238 72 278 2.0 5.0 0.00 0.00 0.00 71 1021.5
20260830131732 72 359 2.0 5.0 0.00 0.00 0.00 72 1021.5
20260830131454 71 314 1.0 5.0 0.00 0.00 0.00 73 1021.5
20260830130946 71 307 1.0 6.0 0.00 0.00 0.00 73 1021.5
20260830130228 71 302 0.0 8.0 0.00 0.00 0.00 74 1021.5
20260830125727 70 221 2.0 8.0 0.00 0.00 0.00 76 1021.6
20260830125444 69 248 1.0 5.0 0.00 0.00 0.00 78 1021.7
20260830124725 68 7 1.0 2.0 0.00 0.00 0.00 79 1021.6
20260830124226 67 332 1.0 3.0 0.00 0.00 0.00 80 1021.7
20260830123727 66 338 1.0 3.0 0.00 0.00 0.00 80 1021.9
20260830123224 66 314 1.0 5.0 0.00 0.00 0.00 80 1022.1
20260830122942 66 321 2.0 5.0 0.00 0.00 0.00 80 1022.1
20260830122222 65 240 1.0 3.0 0.00 0.00 0.00 80 1022.1
20260830121721 65 228 2.0 3.0 0.00 0.00 0.00 81 1022.1
20260830121221 65 283 1.0 3.0 0.00 0.00 0.00 81 1022.1
20260830120722 64 259 1.0 4.0 0.00 0.00 0.00 82 1022.1
20260830120219 64 323 1.0 4.0 0.00 0.00 0.00 82 1022.1
20260830115721 64 342 1.0 4.0 0.00 0.00 0.00 82 1022.1
20260830115219 63 278 2.0 4.0 0.00 0.00 0.00 82 1022.1
20260830114718 63 333 1.0 3.0 0.00 0.00 0.00 83 1022.1
20260830114210 63 330 1.0 4.0 0.00 0.00 0.00 83 1022.1
20260830113709 63 301 1.0 4.0 0.00 0.00 0.00 83 1022.0
20260830113154 62 322 2.0 3.0 0.00 0.00 0.00 83 1022.2
20260830112656 62 266 1.0 6.0 0.00 0.00 0.00 84 1022.1
20260830112400 62 325 1.0 6.0 0.00 0.00 0.00 84 1022.1
20260830111636 62 312 1.0 4.0 0.00 0.00 0.00 84 1022.0
20260830111401 62 312 1.0 4.0 0.00 0.00 0.00 84 1022.0
20260830110841 62 330 2.0 3.0 0.00 0.00 0.00 84 1022.0
20260830110116 61 196 1.0 4.0 0.00 0.00 0.00 84 1022.0
20260830105820 61 257 1.0 5.0 0.00 0.00 0.00 84 1022.1
20260830105701 61 328 1.0 4.0 0.00 0.00 0.00 84 1022.1
20260830104606 61 311 2.0 5.0 0.00 0.00 0.00 85 1022.3
20260830104108 61 46 2.0 3.0 0.00 0.00 0.00 85 1022.1
20260830103558 61 295 2.0 4.0 0.00 0.00 0.00 85 1022.1
20260830103058 61 342 1.0 4.0 0.00 0.00 0.00 85 1022.3
20260830102813 60 328 1.0 3.0 0.00 0.00 0.00 85 1022.1
20260830102034 60 330 1.0 3.0 0.00 0.00 0.00 85 1022.2
20260830101535 60 330 1.0 3.0 0.00 0.00 0.00 85 1022.1
20260830101036 61 322 1.0 3.0 0.00 0.00 0.00 85 1022.1
20260830100532 61 322 1.0 3.0 0.00 0.00 0.00 85 1022.0
20260830100259 61 50 0.0 3.0 0.00 0.00 0.00 85 1022.1
20260830095534 61 51 1.0 3.0 0.00 0.00 0.00 85 1022.1
20260830095033 61 325 1.0 2.0 0.00 0.00 0.00 85 1022.0
20260830094533 61 325 1.0 2.0 0.00 0.00 0.00 85 1022.0
20260830094023 61 325 1.0 2.0 0.00 0.00 0.00 86 1022.0
20260830093523 60 313 1.0 2.0 0.00 0.00 0.00 86 1021.9
20260830093514 60 312 1.0 2.0 0.00 0.00 0.00 86 1022.1
20260830092521 60 312 1.0 2.0 0.00 0.00 0.00 86 1022.1
20260830092240 60 306 1.0 2.0 0.00 0.00 0.00 86 1022.2
20260830091518 60 306 0.0 1.0 0.00 0.00 0.00 86 1022.3
20260830091009 60 306 0.0 2.0 0.00 0.00 0.00 87 1022.3
20260830090509 60 306 0.0 2.0 0.00 0.00 0.00 87 1022.4
20260830090007 60 306 0.0 2.0 0.00 0.00 0.00 87 1022.5
20260830085459 60 306 0.0 3.0 0.00 0.00 0.00 87 1022.6
20260830084956 60 307 0.0 3.0 0.00 0.00 0.00 87 1022.7
20260830084457 60 218 0.0 4.0 0.00 0.00 0.00 87 1022.8
20260830083957 60 218 1.0 4.0 0.00 0.00 0.00 87 1022.8
20260830083448 60 257 1.0 3.0 0.00 0.00 0.00 87 1022.9
20260830082946 60 248 0.0 2.0 0.00 0.00 0.00 87 1022.9
20260830082446 60 248 1.0 2.0 0.00 0.00 0.00 87 1022.9
20260830081937 60 237 1.0 2.0 0.00 0.00 0.00 87 1022.9
20260830081436 60 240 1.0 2.0 0.00 0.00 0.00 87 1022.9
20260830081147 60 239 1.0 3.0 0.00 0.00 0.00 87 1022.8
20260830080428 60 238 1.0 3.0 0.00 0.00 0.00 87 1022.8